Location: Ellerstadt
(49.4644°N, 8.2615°E)
Time: 02:50:51
(UTC+00:00)

SPOT 3 Rocket - Pass Details

Date: 14 June 2021
Orbit: 779 x 794 km, 98.7° (Epoch: 03 August)

Event Time Altitude Azimuth Distance (km) Brightness Sun altitude
Exits shadow 20:53:10 - 191° (S) 3,193 6.3 -9.6°
Reaches altitude 10° 20:55:31 10° 200° (SSW) 2,334 5.7 -9.8°
Maximum altitude 21:00:09 33° 264° (W) 1,296 5.0 -10.2°
Drops below altitude 10° 21:04:50 10° 329° (NNW) 2,359 7.7 -10.6°
Sets 21:07:24 0° 338° (NNW) 3,296 8.7 -10.9°
